Location: Acts Church of Fort Worth
(32.6786°N, 97.2668°W)
Time: 09:50:18
(UTC+00:00)

Cosmos 1943 Rocket - Pass Details

Date: 18 January 2026
Orbit: 812 x 842 km, 71.0° (Epoch: 9 February)

Event Time Altitude Azimuth Distance (km) Brightness Sun altitude
Exits shadow 11:12:05 39° 16° (NNE) 1,193 3.0 -28.8°
Drops below altitude 10° 11:15:29 10° 19° (NNE) 2,401 4.7 -28.1°
Sets 11:17:55 0° 20° (NNE) 3,336 5.5 -27.6°
